Time,TemperatureF,DewpointF,PressureIn,WindDirection,WindDirectionDegrees,WindSpeedMPH,WindSpeedGustMPH,Humidity,HourlyPrecipIn,Conditions,Clouds,dailyrainin,SoftwareType,DateUTC
2013-02-20 00:00:00,59.4,44.6,30.06,West,269,0.0,0.0,58,0.00,,---,0.00,VWS V14.01,2013-02-20 05:00:00,
2013-02-20 00:05:00,59.2,44.4,30.06,West,269,0.0,0.0,58,0.00,,---,0.00,VWS V14.01,2013-02-20 05:05:00,
2013-02-20 00:10:00,59.0,44.7,30.06,West,269,0.0,0.0,59,0.00,,---,0.00,VWS V14.01,2013-02-20 05:10:00,
2013-02-20 00:15:00,58.8,44.5,30.06,West,269,0.0,0.0,59,0.00,,---,0.00,VWS V14.01,2013-02-20 05:15:00,
2013-02-20 00:20:00,58.6,44.4,30.06,West,269,0.0,0.0,59,0.00,,---,0.00,VWS V14.01,2013-02-20 05:20:00,
2013-02-20 00:25:00,58.5,44.2,30.06,West,269,0.0,0.0,59,0.00,,---,0.00,VWS V14.01,2013-02-20 05:25:00,
2013-02-20 00:30:00,58.3,44.0,30.06,West,269,0.0,0.0,59,0.00,,---,0.00,VWS V14.01,2013-02-20 05:30:00,
2013-02-20 00:35:00,58.1,43.9,30.06,West,269,0.0,0.0,59,0.00,,---,0.00,VWS V14.01,2013-02-20 05:35:00,
2013-02-20 00:40:00,57.9,43.7,30.06,West,269,0.0,0.0,59,0.00,,---,0.00,VWS V14.01,2013-02-20 05:40:00,
2013-02-20 00:45:00,57.7,43.5,30.06,West,269,0.0,0.0,59,0.00,,---,0.00,VWS V14.01,2013-02-20 05:45:00,
2013-02-20 00:50:00,57.4,43.2,30.06,West,269,0.0,0.0,59,0.00,,---,0.00,VWS V14.01,2013-02-20 05:50:00,
2013-02-20 00:55:00,57.2,43.5,30.06,West,269,0.0,0.0,60,0.00,,---,0.00,VWS V14.01,2013-02-20 05:55:00,
2013-02-20 01:00:00,57.0,43.3,30.06,West,269,0.0,0.0,60,0.00,,---,0.00,VWS V14.01,2013-02-20 06:00:00,
2013-02-20 01:05:00,57.0,43.7,30.06,West,269,0.0,0.0,61,0.00,,---,0.00,VWS V14.01,2013-02-20 06:05:00,
2013-02-20 01:10:00,57.0,43.7,30.06,West,269,0.0,0.0,61,0.00,,---,0.00,VWS V14.01,2013-02-20 06:10:00,
2013-02-20 01:15:00,57.2,43.9,30.06,North,350,0.0,0.0,61,0.00,,---,0.00,VWS V14.01,2013-02-20 06:15:00,
2013-02-20 01:20:00,57.4,44.5,30.06,NNW,329,0.0,0.0,62,0.00,,---,0.00,VWS V14.01,2013-02-20 06:20:00,
2013-02-20 01:25:00,57.7,45.7,30.06,North,353,0.0,0.0,64,0.00,,---,0.00,VWS V14.01,2013-02-20 06:25:00,
2013-02-20 01:30:00,58.3,46.6,30.06,West,279,0.0,0.0,65,0.00,,---,0.00,VWS V14.01,2013-02-20 06:30:00,
2013-02-20 01:35:00,58.8,47.1,30.06,NNW,335,0.0,0.0,65,0.00,,---,0.00,VWS V14.01,2013-02-20 06:35:00,
2013-02-20 01:40:00,59.4,47.6,30.06,NW,322,0.0,0.0,65,0.00,,---,0.00,VWS V14.01,2013-02-20 06:40:00,
2013-02-20 01:45:00,59.7,48.0,30.06,NW,325,0.0,0.0,65,0.00,,---,0.00,VWS V14.01,2013-02-20 06:45:00,
2013-02-20 01:50:00,59.9,47.7,30.03,NNW,339,0.0,0.0,64,0.00,,---,0.00,VWS V14.01,2013-02-20 06:50:00,
2013-02-20 01:55:00,60.1,47.9,30.03,NW,304,0.0,0.0,64,0.00,,---,0.00,VWS V14.01,2013-02-20 06:55:00,
2013-02-20 02:00:00,60.3,48.0,30.03,NE,39,0.0,0.0,64,0.00,,---,0.00,VWS V14.01,2013-02-20 07:00:00,
2013-02-20 02:05:00,60.3,47.6,30.06,North,350,0.0,0.0,63,0.00,,---,0.00,VWS V14.01,2013-02-20 07:05:00,
2013-02-20 02:10:00,60.4,47.8,30.06,ESE,108,0.0,0.0,63,0.00,,---,0.00,VWS V14.01,2013-02-20 07:10:00,
2013-02-20 02:15:00,60.3,47.2,30.06,East,95,0.0,0.0,62,0.00,,---,0.00,VWS V14.01,2013-02-20 07:15:00,
2013-02-20 02:20:00,60.3,47.2,30.03,East,100,0.0,0.0,62,0.00,,---,0.00,VWS V14.01,2013-02-20 07:20:00,
2013-02-20 02:25:00,60.1,47.0,30.03,NNW,331,0.0,0.0,62,0.00,,---,0.00,VWS V14.01,2013-02-20 07:25:00,
2013-02-20 02:30:00,59.9,46.9,30.03,NNW,331,0.0,0.0,62,0.00,,---,0.00,VWS V14.01,2013-02-20 07:30:00,
2013-02-20 02:35:00,59.7,46.7,30.06,ENE,72,0.0,0.0,62,0.00,,---,0.00,VWS V14.01,2013-02-20 07:35:00,
2013-02-20 02:40:00,59.7,46.7,30.06,NNW,337,0.0,0.0,62,0.00,,---,0.00,VWS V14.01,2013-02-20 07:40:00,
2013-02-20 02:45:00,59.7,46.7,30.06,WNW,299,0.0,0.0,62,0.00,,---,0.00,VWS V14.01,2013-02-20 07:45:00,
2013-02-20 02:50:00,59.7,46.7,30.06,WNW,300,0.0,0.0,62,0.00,,---,0.00,VWS V14.01,2013-02-20 07:50:00,
2013-02-20 02:55:00,59.7,46.7,30.06,NW,304,0.0,0.0,62,0.00,,---,0.00,VWS V14.01,2013-02-20 07:55:00,
2013-02-20 03:00:00,59.7,46.7,30.06,NW,304,0.0,0.0,62,0.00,,---,0.00,VWS V14.01,2013-02-20 08:00:00,
2013-02-20 03:05:00,59.5,46.5,30.06,NW,304,0.0,0.0,62,0.00,,---,0.00,VWS V14.01,2013-02-20 08:05:00,
2013-02-20 03:10:00,59.5,46.5,30.06,NW,304,0.0,0.0,62,0.00,,---,0.00,VWS V14.01,2013-02-20 08:10:00,
2013-02-20 03:15:00,59.5,46.5,30.06,NW,304,0.0,0.0,62,0.00,,---,0.00,VWS V14.01,2013-02-20 08:15:00,
2013-02-20 03:20:00,59.4,45.9,30.06,NW,304,0.0,0.0,61,0.00,,---,0.00,VWS V14.01,2013-02-20 08:20:00,
2013-02-20 03:25:00,59.2,45.8,30.06,NW,304,0.0,0.0,61,0.00,,---,0.00,VWS V14.01,2013-02-20 08:25:00,
2013-02-20 03:30:00,59.0,45.6,30.06,NW,304,0.0,0.0,61,0.00,,---,0.00,VWS V14.01,2013-02-20 08:30:00,
2013-02-20 03:35:00,58.5,45.1,30.06,NW,304,0.0,0.0,61,0.00,,---,0.00,VWS V14.01,2013-02-20 08:35:00,
2013-02-20 03:40:00,58.1,44.7,30.06,NW,304,0.0,0.0,61,0.00,,---,0.00,VWS V14.01,2013-02-20 08:40:00,
2013-02-20 03:45:00,57.7,44.4,30.06,NW,304,0.0,0.0,61,0.00,,---,0.00,VWS V14.01,2013-02-20 08:45:00,
2013-02-20 03:50:00,57.2,43.9,30.03,NW,304,0.0,0.0,61,0.00,,---,0.00,VWS V14.01,2013-02-20 08:50:00,
2013-02-20 03:55:00,56.8,44.0,30.03,NW,304,0.0,0.0,62,0.00,,---,0.00,VWS V14.01,2013-02-20 08:55:00,
2013-02-20 04:00:00,56.7,43.8,30.03,NW,304,0.0,0.0,62,0.00,,---,0.00,VWS V14.01,2013-02-20 09:00:00,
2013-02-20 04:05:00,56.3,43.5,30.06,NW,304,0.0,0.0,62,0.00,,---,0.00,VWS V14.01,2013-02-20 09:05:00,
2013-02-20 04:10:00,55.9,43.1,30.06,NNW,337,0.0,0.0,62,0.00,,---,0.00,VWS V14.01,2013-02-20 09:10:00,
2013-02-20 04:15:00,55.6,42.8,30.06,North,353,0.0,0.0,62,0.00,,---,0.00,VWS V14.01,2013-02-20 09:15:00,
2013-02-20 04:20:00,55.4,43.0,30.06,NE,44,4.0,4.0,63,0.00,,---,0.00,VWS V14.01,2013-02-20 09:20:00,
2013-02-20 04:25:00,55.6,44.0,30.06,NNW,332,0.0,0.0,65,0.00,,---,0.00,VWS V14.01,2013-02-20 09:25:00,
2013-02-20 04:30:00,55.9,43.5,30.06,North,357,0.0,0.0,63,0.00,,---,0.00,VWS V14.01,2013-02-20 09:30:00,
2013-02-20 04:35:00,55.8,42.1,30.06,NE,39,3.1,3.1,60,0.00,,---,0.00,VWS V14.01,2013-02-20 09:35:00,
2013-02-20 04:40:00,55.8,41.7,30.06,North,7,0.0,0.0,59,0.00,,---,0.00,VWS V14.01,2013-02-20 09:40:00,
2013-02-20 04:45:00,55.6,41.5,30.06,NNW,337,4.0,4.0,59,0.00,,---,0.00,VWS V14.01,2013-02-20 09:45:00,
2013-02-20 04:50:00,55.2,40.7,30.06,North,357,0.0,0.0,58,0.00,,---,0.00,VWS V14.01,2013-02-20 09:50:00,
2013-02-20 04:55:00,55.0,40.5,30.06,North,357,0.0,0.0,58,0.00,,---,0.00,VWS V14.01,2013-02-20 09:55:00,
2013-02-20 05:00:00,54.7,40.2,30.06,NW,316,0.0,4.0,58,0.00,,---,0.00,VWS V14.01,2013-02-20 10:00:00,
2013-02-20 05:05:00,54.5,40.0,30.06,WSW,257,0.0,0.0,58,0.00,,---,0.00,VWS V14.01,2013-02-20 10:05:00,
2013-02-20 05:10:00,54.1,39.3,30.06,NNE,15,0.0,0.0,57,0.00,,---,0.00,VWS V14.01,2013-02-20 10:10:00,
2013-02-20 05:15:00,54.0,39.1,30.06,NW,305,0.0,0.0,57,0.00,,---,0.00,VWS V14.01,2013-02-20 10:15:00,
2013-02-20 05:20:00,53.6,38.8,30.06,NE,34,0.0,0.0,57,0.00,,---,0.00,VWS V14.01,2013-02-20 10:20:00,
2013-02-20 05:25:00,53.2,38.4,30.06,NE,34,0.0,0.0,57,0.00,,---,0.00,VWS V14.01,2013-02-20 10:25:00,
2013-02-20 05:30:00,52.9,38.1,30.06,North,357,0.0,0.0,57,0.00,,---,0.00,VWS V14.01,2013-02-20 10:30:00,
2013-02-20 05:35:00,52.5,37.7,30.06,WNW,283,0.0,0.0,57,0.00,,---,0.00,VWS V14.01,2013-02-20 10:35:00,
2013-02-20 05:40:00,52.3,37.6,30.06,NNE,14,0.0,0.0,57,0.00,,---,0.00,VWS V14.01,2013-02-20 10:40:00,
2013-02-20 05:45:00,52.2,37.4,30.06,NW,319,0.0,0.0,57,0.00,,---,0.00,VWS V14.01,2013-02-20 10:45:00,
2013-02-20 05:50:00,51.8,37.1,30.06,NNW,341,0.0,0.0,57,0.00,,---,0.00,VWS V14.01,2013-02-20 10:50:00,
2013-02-20 05:55:00,51.4,36.7,30.06,NNW,341,0.0,0.0,57,0.00,,---,0.00,VWS V14.01,2013-02-20 10:55:00,
2013-02-20 06:00:00,51.1,36.4,30.06,NNW,340,0.0,0.0,57,0.00,,---,0.00,VWS V14.01,2013-02-20 11:00:00,
2013-02-20 06:05:00,50.7,36.1,30.09,NNW,342,0.0,0.0,57,0.00,,---,0.00,VWS V14.01,2013-02-20 11:05:00,
2013-02-20 06:10:00,50.5,35.9,30.09,NW,314,0.0,0.0,57,0.00,,---,0.00,VWS V14.01,2013-02-20 11:10:00,
2013-02-20 06:15:00,50.4,35.7,30.09,NE,34,0.0,0.0,57,0.00,,---,0.00,VWS V14.01,2013-02-20 11:15:00,
2013-02-20 06:20:00,50.4,35.7,30.09,NNW,340,0.0,0.0,57,0.00,,---,0.00,VWS V14.01,2013-02-20 11:20:00,
2013-02-20 06:25:00,50.2,35.5,30.09,WNW,299,0.0,0.0,57,0.00,,---,0.00,VWS V14.01,2013-02-20 11:25:00,
2013-02-20 06:30:00,50.2,35.5,30.09,WNW,299,0.0,0.0,57,0.00,,---,0.00,VWS V14.01,2013-02-20 11:30:00,
2013-02-20 06:35:00,50.0,35.4,30.09,NNE,28,0.0,0.0,57,0.00,,---,0.00,VWS V14.01,2013-02-20 11:35:00,
2013-02-20 06:40:00,49.8,35.7,30.09,NNE,22,0.0,0.0,58,0.00,,---,0.00,VWS V14.01,2013-02-20 11:40:00,
2013-02-20 06:45:00,49.6,35.5,30.09,NNW,333,0.0,0.0,58,0.00,,---,0.00,VWS V14.01,2013-02-20 11:45:00,
2013-02-20 06:50:00,49.5,35.3,30.09,NNW,340,0.0,0.0,58,0.00,,---,0.00,VWS V14.01,2013-02-20 11:50:00,
2013-02-20 06:55:00,49.3,35.1,30.09,North,10,0.0,0.0,58,0.00,,---,0.00,VWS V14.01,2013-02-20 11:55:00,
2013-02-20 07:00:00,49.5,34.9,30.09,NE,52,0.0,0.0,57,0.00,,---,0.00,VWS V14.01,2013-02-20 12:00:00,
2013-02-20 07:05:00,49.5,34.9,30.09,North,7,0.0,0.0,57,0.00,,---,0.00,VWS V14.01,2013-02-20 12:05:00,
2013-02-20 07:10:00,49.5,34.4,30.09,ENE,68,0.0,0.0,56,0.00,,---,0.00,VWS V14.01,2013-02-20 12:10:00,
2013-02-20 07:15:00,49.5,34.0,30.09,NNW,327,0.0,0.0,55,0.00,,---,0.00,VWS V14.01,2013-02-20 12:15:00,
2013-02-20 07:20:00,49.3,33.4,30.09,NNW,341,0.0,0.0,54,0.00,,---,0.00,VWS V14.01,2013-02-20 12:20:00,
2013-02-20 07:25:00,49.3,33.4,30.09,NNE,16,0.0,0.0,54,0.00,,---,0.00,VWS V14.01,2013-02-20 12:25:00,
2013-02-20 07:30:00,49.1,33.2,30.09,NW,313,0.0,0.0,54,0.00,,---,0.00,VWS V14.01,2013-02-20 12:30:00,
2013-02-20 07:35:00,49.1,33.2,30.09,WNW,293,0.0,2.7,54,0.00,,---,0.00,VWS V14.01,2013-02-20 12:35:00,
2013-02-20 07:40:00,49.1,33.7,30.09,NE,46,0.0,0.0,55,0.00,,---,0.00,VWS V14.01,2013-02-20 12:40:00,
2013-02-20 07:45:00,49.1,33.7,30.09,NNE,15,0.0,0.0,55,0.00,,---,0.00,VWS V14.01,2013-02-20 12:45:00,
2013-02-20 07:50:00,49.1,33.7,30.09,NE,37,0.0,0.0,55,0.00,,---,0.00,VWS V14.01,2013-02-20 12:50:00,
2013-02-20 07:55:00,49.1,33.7,30.09,NE,50,0.0,0.0,55,0.00,,---,0.00,VWS V14.01,2013-02-20 12:55:00,
2013-02-20 08:00:00,49.3,33.8,30.09,North,350,0.0,0.0,55,0.00,,---,0.00,VWS V14.01,2013-02-20 13:00:00,
2013-02-20 08:05:00,49.5,34.4,30.12,North,10,0.0,0.0,56,0.00,,---,0.00,VWS V14.01,2013-02-20 13:05:00,
2013-02-20 08:10:00,49.5,34.4,30.12,NNE,29,3.1,3.1,56,0.00,,---,0.00,VWS V14.01,2013-02-20 13:10:00,
2013-02-20 08:15:00,49.6,34.6,30.12,North,3,2.7,2.7,56,0.00,,---,0.00,VWS V14.01,2013-02-20 13:15:00,
2013-02-20 08:20:00,49.6,34.2,30.12,SW,225,0.0,0.0,55,0.00,,---,0.00,VWS V14.01,2013-02-20 13:20:00,
2013-02-20 08:25:00,49.8,32.4,30.12,North,6,5.8,5.8,51,0.00,,---,0.00,VWS V14.01,2013-02-20 13:25:00,
2013-02-20 08:30:00,50.0,31.6,30.12,North,11,0.0,0.0,49,0.00,,---,0.00,VWS V14.01,2013-02-20 13:30:00,
2013-02-20 08:35:00,50.2,31.8,30.12,North,6,3.6,3.6,49,0.00,,---,0.00,VWS V14.01,2013-02-20 13:35:00,
2013-02-20 08:40:00,50.4,31.9,30.12,NNE,16,0.0,0.0,49,0.00,,---,0.00,VWS V14.01,2013-02-20 13:40:00,
2013-02-20 08:45:00,50.4,30.9,30.12,North,357,3.1,5.4,47,0.00,,---,0.00,VWS V14.01,2013-02-20 13:45:00,
2013-02-20 08:50:00,50.9,31.9,30.12,ENE,75,4.0,4.0,48,0.00,,---,0.00,VWS V14.01,2013-02-20 13:50:00,
2013-02-20 08:55:00,51.1,32.1,30.12,ENE,64,0.0,2.7,48,0.00,,---,0.00,VWS V14.01,2013-02-20 13:55:00,
2013-02-20 09:00:00,51.4,31.9,30.12,SW,231,2.2,3.6,47,0.00,,---,0.00,VWS V14.01,2013-02-20 14:00:00,
2013-02-20 09:05:00,51.6,32.1,30.12,West,278,5.8,5.8,47,0.00,,---,0.00,VWS V14.01,2013-02-20 14:05:00,
2013-02-20 09:10:00,51.8,32.2,30.12,North,357,0.0,0.0,47,0.00,,---,0.00,VWS V14.01,2013-02-20 14:10:00,
2013-02-20 09:15:00,52.2,32.6,30.12,ENE,69,0.0,0.0,47,0.00,,---,0.00,VWS V14.01,2013-02-20 14:15:00,
2013-02-20 09:20:00,52.5,32.9,30.09,NNE,27,0.0,0.0,47,0.00,,---,0.00,VWS V14.01,2013-02-20 14:20:00,
2013-02-20 09:25:00,52.9,32.7,30.09,North,349,2.7,3.1,46,0.00,,---,0.00,VWS V14.01,2013-02-20 14:25:00,
2013-02-20 09:30:00,53.2,33.0,30.09,East,98,0.0,0.0,46,0.00,,---,0.00,VWS V14.01,2013-02-20 14:30:00,
2013-02-20 09:35:00,53.8,33.0,30.12,NNE,20,0.0,0.0,45,0.00,,---,0.00,VWS V14.01,2013-02-20 14:35:00,
2013-02-20 09:40:00,54.1,33.8,30.12,SW,234,2.2,2.2,46,0.00,,---,0.00,VWS V14.01,2013-02-20 14:40:00,
2013-02-20 09:45:00,54.3,33.5,30.12,West,264,0.0,0.0,45,0.00,,---,0.00,VWS V14.01,2013-02-20 14:45:00,
2013-02-20 09:50:00,54.5,33.6,30.09,East,95,0.0,0.0,45,0.00,,---,0.00,VWS V14.01,2013-02-20 14:50:00,
2013-02-20 09:55:00,54.9,32.8,30.09,NNE,22,3.1,4.9,43,0.00,,---,0.00,VWS V14.01,2013-02-20 14:55:00,
2013-02-20 10:00:00,55.0,33.0,30.09,NE,38,2.2,3.6,43,0.00,,---,0.00,VWS V14.01,2013-02-20 15:00:00,
2013-02-20 10:05:00,55.4,32.7,30.09,NNE,33,4.0,5.8,42,0.00,,---,0.00,VWS V14.01,2013-02-20 15:05:00,
2013-02-20 10:10:00,55.6,32.9,30.09,SSW,212,3.1,3.1,42,0.00,,---,0.00,VWS V14.01,2013-02-20 15:10:00,
2013-02-20 10:15:00,55.6,32.9,30.09,WNW,301,3.6,3.6,42,0.00,,---,0.00,VWS V14.01,2013-02-20 15:15:00,
2013-02-20 10:20:00,55.8,31.8,30.09,WSW,250,0.0,3.1,40,0.00,,---,0.00,VWS V14.01,2013-02-20 15:20:00,
2013-02-20 10:25:00,55.9,32.0,30.09,West,281,2.7,2.7,40,0.00,,---,0.00,VWS V14.01,2013-02-20 15:25:00,
2013-02-20 10:30:00,56.5,32.5,30.09,NNE,32,2.7,6.3,40,0.00,,---,0.00,VWS V14.01,2013-02-20 15:30:00,
2013-02-20 10:35:00,56.7,32.6,30.09,WSW,237,0.0,2.7,40,0.00,,---,0.00,VWS V14.01,2013-02-20 15:35:00,
2013-02-20 10:40:00,57.0,33.0,30.09,WSW,251,2.7,5.4,40,0.00,,---,0.00,VWS V14.01,2013-02-20 15:40:00,
2013-02-20 10:45:00,57.4,32.7,30.09,NNE,30,3.6,3.6,39,0.00,,---,0.00,VWS V14.01,2013-02-20 15:45:00,
2013-02-20 10:50:00,57.7,33.0,30.12,North,7,3.6,4.0,39,0.00,,---,0.00,VWS V14.01,2013-02-20 15:50:00,
2013-02-20 10:55:00,57.9,33.1,30.12,NNE,19,0.0,3.6,39,0.00,,---,0.00,VWS V14.01,2013-02-20 15:55:00,
2013-02-20 11:00:00,57.9,33.1,30.12,West,262,2.7,2.7,39,0.00,,---,0.00,VWS V14.01,2013-02-20 16:00:00,
2013-02-20 11:05:00,58.3,33.5,30.09,WNW,286,2.7,4.0,39,0.00,,---,0.00,VWS V14.01,2013-02-20 16:05:00,
2013-02-20 11:10:00,58.6,33.8,30.09,WSW,257,3.6,3.6,39,0.00,,---,0.00,VWS V14.01,2013-02-20 16:10:00,
2013-02-20 11:15:00,58.8,33.9,30.09,SE,131,0.0,2.7,39,0.00,,---,0.00,VWS V14.01,2013-02-20 16:15:00,
2013-02-20 11:20:00,59.2,34.3,30.09,NE,51,0.0,0.0,39,0.00,,---,0.00,VWS V14.01,2013-02-20 16:20:00,
2013-02-20 11:25:00,59.4,34.4,30.09,ENE,61,0.0,0.0,39,0.00,,---,0.00,VWS V14.01,2013-02-20 16:25:00,
2013-02-20 11:30:00,59.7,34.7,30.09,ENE,60,0.0,0.0,39,0.00,,---,0.00,VWS V14.01,2013-02-20 16:30:00,
2013-02-20 11:35:00,60.3,35.2,30.09,SSE,159,0.0,0.0,39,0.00,,---,0.00,VWS V14.01,2013-02-20 16:35:00,
2013-02-20 11:40:00,60.6,35.5,30.09,NE,54,3.6,3.6,39,0.00,,---,0.00,VWS V14.01,2013-02-20 16:40:00,
2013-02-20 11:45:00,60.6,35.5,30.09,NNW,341,0.0,0.0,39,0.00,,---,0.00,VWS V14.01,2013-02-20 16:45:00,
2013-02-20 11:50:00,60.4,35.4,30.09,SW,227,4.9,4.9,39,0.00,,---,0.00,VWS V14.01,2013-02-20 16:50:00,
2013-02-20 11:55:00,61.0,35.9,30.09,SW,214,0.0,0.0,39,0.00,,---,0.00,VWS V14.01,2013-02-20 16:55:00,
2013-02-20 12:00:00,61.5,36.3,30.09,ENE,69,2.2,3.1,39,0.00,,---,0.00,VWS V14.01,2013-02-20 17:00:00,
2013-02-20 12:05:00,61.9,36.7,30.06,South,189,0.0,0.0,39,0.00,,---,0.00,VWS V14.01,2013-02-20 17:05:00,
2013-02-20 12:10:00,62.2,37.0,30.06,ENE,77,0.0,0.0,39,0.00,,---,0.00,VWS V14.01,2013-02-20 17:10:00,
2013-02-20 12:15:00,62.2,37.0,30.06,NNE,29,0.0,0.0,39,0.00,,---,0.00,VWS V14.01,2013-02-20 17:15:00,
2013-02-20 12:20:00,62.4,37.2,30.06,ENE,63,0.0,0.0,39,0.00,,---,0.00,VWS V14.01,2013-02-20 17:20:00,
2013-02-20 12:25:00,62.8,36.8,30.06,ENE,72,0.0,2.7,38,0.00,,---,0.00,VWS V14.01,2013-02-20 17:25:00,
2013-02-20 12:30:00,63.1,37.1,30.06,SW,224,0.0,0.0,38,0.00,,---,0.00,VWS V14.01,2013-02-20 17:30:00,
2013-02-20 12:35:00,63.7,37.6,30.06,North,357,0.0,0.0,38,0.00,,---,0.00,VWS V14.01,2013-02-20 17:35:00,
2013-02-20 12:40:00,64.0,37.9,30.06,SSE,166,0.0,0.0,38,0.00,,---,0.00,VWS V14.01,2013-02-20 17:40:00,
2013-02-20 12:45:00,64.6,38.4,30.06,SE,127,0.0,2.2,38,0.00,,---,0.00,VWS V14.01,2013-02-20 17:45:00,
2013-02-20 12:50:00,65.1,38.9,30.03,NNW,339,0.0,0.0,38,0.00,,---,0.00,VWS V14.01,2013-02-20 17:50:00,
2013-02-20 12:55:00,65.3,39.1,30.03,NNW,346,0.0,0.0,38,0.00,,---,0.00,VWS V14.01,2013-02-20 17:55:00,
2013-02-20 13:00:00,65.5,39.2,30.03,ENE,59,2.2,2.2,38,0.00,,---,0.00,VWS V14.01,2013-02-20 18:00:00,
2013-02-20 13:05:00,66.0,39.7,30.03,ENE,78,0.0,0.0,38,0.00,,---,0.00,VWS V14.01,2013-02-20 18:05:00,
2013-02-20 13:10:00,66.6,39.5,30.03,SSE,165,3.6,3.6,37,0.00,,---,0.00,VWS V14.01,2013-02-20 18:10:00,
2013-02-20 13:15:00,66.7,39.7,30.03,ESE,109,0.0,0.0,37,0.00,,---,0.00,VWS V14.01,2013-02-20 18:15:00,
2013-02-20 13:20:00,66.7,39.7,30.03,ESE,106,0.0,3.6,37,0.00,,---,0.00,VWS V14.01,2013-02-20 18:20:00,
2013-02-20 13:25:00,67.1,40.0,30.03,North,353,3.1,3.6,37,0.00,,---,0.00,VWS V14.01,2013-02-20 18:25:00,
2013-02-20 13:30:00,67.3,40.1,30.03,South,178,0.0,0.0,37,0.00,,---,0.00,VWS V14.01,2013-02-20 18:30:00,
2013-02-20 13:35:00,67.8,40.6,30.03,ENE,70,0.0,0.0,37,0.00,,---,0.00,VWS V14.01,2013-02-20 18:35:00,
2013-02-20 13:40:00,68.4,41.1,30.03,SE,144,2.7,2.7,37,0.00,,---,0.00,VWS V14.01,2013-02-20 18:40:00,
2013-02-20 13:45:00,68.7,41.4,30.03,WSW,245,2.7,4.0,37,0.00,,---,0.00,VWS V14.01,2013-02-20 18:45:00,
2013-02-20 13:50:00,69.1,41.7,30.03,West,261,0.0,3.6,37,0.00,,---,0.00,VWS V14.01,2013-02-20 18:50:00,
2013-02-20 13:55:00,69.3,41.9,30.03,ENE,72,2.2,2.2,37,0.00,,---,0.00,VWS V14.01,2013-02-20 18:55:00,
2013-02-20 14:00:00,69.1,41.7,30.03,SSW,205,3.1,4.0,37,0.00,,---,0.00,VWS V14.01,2013-02-20 19:00:00,
2013-02-20 14:05:00,69.6,42.2,30.00,WSW,241,5.4,5.4,37,0.00,,---,0.00,VWS V14.01,2013-02-20 19:05:00,
2013-02-20 14:10:00,69.4,42.1,30.00,SW,227,4.9,4.9,37,0.00,,---,0.00,VWS V14.01,2013-02-20 19:10:00,
2013-02-20 14:15:00,69.4,42.1,30.00,East,81,0.0,3.1,37,0.00,,---,0.00,VWS V14.01,2013-02-20 19:15:00,
2013-02-20 14:20:00,69.8,42.4,30.03,SW,236,3.6,3.6,37,0.00,,---,0.00,VWS V14.01,2013-02-20 19:20:00,
2013-02-20 14:25:00,70.7,43.2,30.03,WSW,250,3.1,3.1,37,0.00,,---,0.00,VWS V14.01,2013-02-20 19:25:00,
2013-02-20 14:30:00,70.7,43.2,30.03,NNW,341,3.6,3.6,37,0.00,,---,0.00,VWS V14.01,2013-02-20 19:30:00,
2013-02-20 14:35:00,70.7,43.2,30.03,NNE,21,0.0,0.0,37,0.00,,---,0.00,VWS V14.01,2013-02-20 19:35:00,
2013-02-20 14:40:00,70.5,43.0,30.03,NE,54,0.0,0.0,37,0.00,,---,0.00,VWS V14.01,2013-02-20 19:40:00,
2013-02-20 14:45:00,70.3,42.9,30.03,SSW,205,0.0,0.0,37,0.00,,---,0.00,VWS V14.01,2013-02-20 19:45:00,
2013-02-20 14:50:00,70.7,43.2,30.03,SW,221,3.6,4.9,37,0.00,,---,0.00,VWS V14.01,2013-02-20 19:50:00,
2013-02-20 14:55:00,71.1,43.5,30.03,WSW,252,0.0,0.0,37,0.00,,---,0.00,VWS V14.01,2013-02-20 19:55:00,
2013-02-20 15:00:00,71.2,43.7,30.03,NNW,333,2.7,3.6,37,0.00,,---,0.00,VWS V14.01,2013-02-20 20:00:00,
2013-02-20 15:05:00,70.9,43.3,30.03,West,274,3.1,4.9,37,0.00,,---,0.00,VWS V14.01,2013-02-20 20:05:00,
2013-02-20 15:10:00,70.5,43.0,30.03,ENE,61,2.7,2.7,37,0.00,,---,0.00,VWS V14.01,2013-02-20 20:10:00,
2013-02-20 15:15:00,70.3,42.9,30.03,NW,315,0.0,0.0,37,0.00,,---,0.00,VWS V14.01,2013-02-20 20:15:00,
2013-02-20 15:20:00,70.3,42.9,30.03,NW,317,3.1,3.6,37,0.00,,---,0.00,VWS V14.01,2013-02-20 20:20:00,
2013-02-20 15:25:00,70.0,42.5,30.03,WNW,296,3.1,3.1,37,0.00,,---,0.00,VWS V14.01,2013-02-20 20:25:00,
2013-02-20 15:30:00,69.6,42.2,30.03,WNW,284,3.1,3.1,37,0.00,,---,0.00,VWS V14.01,2013-02-20 20:30:00,
2013-02-20 15:35:00,69.4,42.1,30.03,WSW,256,0.0,3.1,37,0.00,,---,0.00,VWS V14.01,2013-02-20 20:35:00,
2013-02-20 15:40:00,69.6,42.2,30.03,NNW,336,0.0,3.1,37,0.00,,---,0.00,VWS V14.01,2013-02-20 20:40:00,
2013-02-20 15:45:00,69.1,41.7,30.03,WSW,254,0.0,7.2,37,0.00,,---,0.00,VWS V14.01,2013-02-20 20:45:00,
2013-02-20 15:50:00,68.9,41.6,30.03,WNW,284,0.0,0.0,37,0.00,,---,0.00,VWS V14.01,2013-02-20 20:50:00,
2013-02-20 15:55:00,68.9,41.6,30.03,NW,326,2.7,3.1,37,0.00,,---,0.00,VWS V14.01,2013-02-20 20:55:00,
2013-02-20 16:00:00,68.7,41.4,30.03,SW,220,0.0,0.0,37,0.00,,---,0.00,VWS V14.01,2013-02-20 21:00:00,
2013-02-20 16:05:00,68.5,41.3,30.03,West,281,4.9,5.4,37,0.00,,---,0.00,VWS V14.01,2013-02-20 21:05:00,
2013-02-20 16:10:00,68.4,41.1,30.03,WSW,242,2.2,2.2,37,0.00,,---,0.00,VWS V14.01,2013-02-20 21:10:00,
2013-02-20 16:15:00,68.4,41.1,30.03,NW,310,0.0,0.0,37,0.00,,---,0.00,VWS V14.01,2013-02-20 21:15:00,
2013-02-20 16:20:00,68.5,41.3,30.03,WSW,239,0.0,0.0,37,0.00,,---,0.00,VWS V14.01,2013-02-20 21:20:00,
2013-02-20 16:25:00,68.4,41.1,30.03,West,274,0.0,0.0,37,0.00,,---,0.00,VWS V14.01,2013-02-20 21:25:00,
2013-02-20 16:30:00,68.4,41.1,30.03,West,262,0.0,0.0,37,0.00,,---,0.00,VWS V14.01,2013-02-20 21:30:00,
2013-02-20 16:35:00,68.4,41.1,30.03,West,273,0.0,3.6,37,0.00,,---,0.00,VWS V14.01,2013-02-20 21:35:00,
2013-02-20 16:40:00,68.4,41.1,30.03,West,276,3.1,4.0,37,0.00,,---,0.00,VWS V14.01,2013-02-20 21:40:00,
2013-02-20 16:45:00,68.4,41.1,30.03,NW,313,0.0,0.0,37,0.00,,---,0.00,VWS V14.01,2013-02-20 21:45:00,
2013-02-20 16:50:00,68.2,40.9,30.03,WSW,241,2.2,4.0,37,0.00,,---,0.00,VWS V14.01,2013-02-20 21:50:00,
2013-02-20 16:55:00,68.0,40.8,30.03,NNW,329,0.0,0.0,37,0.00,,---,0.00,VWS V14.01,2013-02-20 21:55:00,
2013-02-20 17:00:00,68.0,40.8,30.03,North,353,0.0,3.6,37,0.00,,---,0.00,VWS V14.01,2013-02-20 22:00:00,
2013-02-20 17:05:00,67.8,40.6,30.03,WSW,253,0.0,0.0,37,0.00,,---,0.00,VWS V14.01,2013-02-20 22:05:00,
2013-02-20 17:10:00,67.6,40.5,30.03,WSW,252,0.0,0.0,37,0.00,,---,0.00,VWS V14.01,2013-02-20 22:10:00,
2013-02-20 17:15:00,67.5,40.3,30.03,WNW,287,0.0,0.0,37,0.00,,---,0.00,VWS V14.01,2013-02-20 22:15:00,
2013-02-20 17:20:00,67.3,40.1,30.03,NNW,340,0.0,0.0,37,0.00,,---,0.00,VWS V14.01,2013-02-20 22:20:00,
2013-02-20 17:25:00,67.1,40.0,30.03,NW,321,0.0,0.0,37,0.00,,---,0.00,VWS V14.01,2013-02-20 22:25:00,
2013-02-20 17:30:00,66.9,39.8,30.03,WNW,303,2.7,2.7,37,0.00,,---,0.00,VWS V14.01,2013-02-20 22:30:00,
2013-02-20 17:35:00,66.7,39.7,30.06,West,275,0.0,0.0,37,0.00,,---,0.00,VWS V14.01,2013-02-20 22:35:00,
2013-02-20 17:40:00,66.6,39.5,30.06,North,0,0.0,0.0,37,0.00,,---,0.00,VWS V14.01,2013-02-20 22:40:00,
2013-02-20 17:45:00,66.4,39.3,30.06,West,265,0.0,0.0,37,0.00,,---,0.00,VWS V14.01,2013-02-20 22:45:00,
2013-02-20 17:50:00,66.4,39.3,30.06,North,0,0.0,0.0,37,0.00,,---,0.00,VWS V14.01,2013-02-20 22:50:00,
2013-02-20 17:55:00,66.0,39.7,30.06,North,7,0.0,0.0,38,0.00,,---,0.00,VWS V14.01,2013-02-20 22:55:00,
2013-02-20 18:00:00,65.8,39.5,30.06,NE,40,0.0,0.0,38,0.00,,---,0.00,VWS V14.01,2013-02-20 23:00:00,
2013-02-20 18:05:00,65.5,39.2,30.06,NNE,31,0.0,0.0,38,0.00,,---,0.00,VWS V14.01,2013-02-20 23:05:00,
2013-02-20 18:10:00,64.9,38.8,30.06,NNE,13,0.0,0.0,38,0.00,,---,0.00,VWS V14.01,2013-02-20 23:10:00,
2013-02-20 18:15:00,64.4,38.3,30.06,NNE,13,0.0,0.0,38,0.00,,---,0.00,VWS V14.01,2013-02-20 23:15:00,
2013-02-20 18:20:00,63.7,37.6,30.06,NNE,13,0.0,0.0,38,0.00,,---,0.00,VWS V14.01,2013-02-20 23:20:00,
2013-02-20 18:25:00,63.0,37.0,30.06,NNE,13,0.0,0.0,38,0.00,,---,0.00,VWS V14.01,2013-02-20 23:25:00,
2013-02-20 18:30:00,62.2,37.0,30.06,NNE,13,0.0,0.0,39,0.00,,---,0.00,VWS V14.01,2013-02-20 23:30:00,
2013-02-20 18:35:00,61.7,36.5,30.06,NNE,13,0.0,0.0,39,0.00,,---,0.00,VWS V14.01,2013-02-20 23:35:00,
2013-02-20 18:40:00,61.3,36.2,30.06,NNE,13,0.0,0.0,39,0.00,,---,0.00,VWS V14.01,2013-02-20 23:40:00,
2013-02-20 18:45:00,60.6,35.5,30.06,NNE,13,0.0,0.0,39,0.00,,---,0.00,VWS V14.01,2013-02-20 23:45:00,
2013-02-20 18:50:00,60.1,35.1,30.06,NNE,13,0.0,0.0,39,0.00,,---,0.00,VWS V14.01,2013-02-20 23:50:00,
2013-02-20 18:55:00,59.5,34.6,30.06,NNE,13,0.0,0.0,39,0.00,,---,0.00,VWS V14.01,2013-02-20 23:55:00,
2013-02-20 19:00:00,59.0,34.1,30.06,NNE,13,0.0,0.0,39,0.00,,---,0.00,VWS V14.01,2013-02-21 00:00:00,
2013-02-20 19:05:00,58.5,33.6,30.09,NNE,13,0.0,0.0,39,0.00,,---,0.00,VWS V14.01,2013-02-21 00:05:00,
2013-02-20 19:10:00,57.9,33.1,30.09,NNE,13,0.0,0.0,39,0.00,,---,0.00,VWS V14.01,2013-02-21 00:10:00,
2013-02-20 19:15:00,57.6,32.8,30.09,NNE,13,0.0,0.0,39,0.00,,---,0.00,VWS V14.01,2013-02-21 00:15:00,
2013-02-20 19:20:00,57.2,32.5,30.09,NNE,13,0.0,0.0,39,0.00,,---,0.00,VWS V14.01,2013-02-21 00:20:00,
2013-02-20 19:25:00,56.8,32.8,30.09,NNE,13,0.0,0.0,40,0.00,,---,0.00,VWS V14.01,2013-02-21 00:25:00,
2013-02-20 19:30:00,56.3,32.3,30.09,NNE,13,0.0,0.0,40,0.00,,---,0.00,VWS V14.01,2013-02-21 00:30:00,
2013-02-20 19:35:00,55.9,32.0,30.09,NNE,13,0.0,0.0,40,0.00,,---,0.00,VWS V14.01,2013-02-21 00:35:00,
2013-02-20 19:40:00,55.8,31.8,30.09,NNE,13,0.0,0.0,40,0.00,,---,0.00,VWS V14.01,2013-02-21 00:40:00,
2013-02-20 19:45:00,55.4,31.5,30.09,NNE,13,0.0,0.0,40,0.00,,---,0.00,VWS V14.01,2013-02-21 00:45:00,
2013-02-20 19:50:00,55.0,31.2,30.09,NNE,13,0.0,0.0,40,0.00,,---,0.00,VWS V14.01,2013-02-21 00:50:00,
2013-02-20 19:55:00,54.7,30.9,30.09,NNE,13,0.0,0.0,40,0.00,,---,0.00,VWS V14.01,2013-02-21 00:55:00,
2013-02-20 20:00:00,54.5,30.7,30.09,NNE,13,0.0,0.0,40,0.00,,---,0.00,VWS V14.01,2013-02-21 01:00:00,
2013-02-20 20:05:00,54.3,30.5,30.09,NNE,13,0.0,0.0,40,0.00,,---,0.00,VWS V14.01,2013-02-21 01:05:00,
2013-02-20 20:10:00,54.0,30.2,30.09,NNE,13,0.0,0.0,40,0.00,,---,0.00,VWS V14.01,2013-02-21 01:10:00,
2013-02-20 20:15:00,53.8,30.0,30.09,NNE,13,0.0,0.0,40,0.00,,---,0.00,VWS V14.01,2013-02-21 01:15:00,
2013-02-20 20:20:00,53.8,30.0,30.09,NNE,13,0.0,0.0,40,0.00,,---,0.00,VWS V14.01,2013-02-21 01:20:00,
2013-02-20 20:25:00,53.4,30.3,30.09,NNE,13,0.0,0.0,41,0.00,,---,0.00,VWS V14.01,2013-02-21 01:25:00,
2013-02-20 20:30:00,53.2,30.2,30.09,NNE,13,0.0,0.0,41,0.00,,---,0.00,VWS V14.01,2013-02-21 01:30:00,
2013-02-20 20:35:00,52.9,29.8,30.09,NNE,13,0.0,0.0,41,0.00,,---,0.00,VWS V14.01,2013-02-21 01:35:00,
2013-02-20 20:40:00,52.7,29.7,30.09,NNE,13,0.0,0.0,41,0.00,,---,0.00,VWS V14.01,2013-02-21 01:40:00,
2013-02-20 20:45:00,52.3,29.4,30.09,NNE,13,0.0,0.0,41,0.00,,---,0.00,VWS V14.01,2013-02-21 01:45:00,
2013-02-20 20:50:00,52.0,29.0,30.06,NNE,13,0.0,0.0,41,0.00,,---,0.00,VWS V14.01,2013-02-21 01:50:00,
2013-02-20 20:55:00,51.6,28.7,30.06,NNE,13,0.0,0.0,41,0.00,,---,0.00,VWS V14.01,2013-02-21 01:55:00,
2013-02-20 21:00:00,51.3,28.4,30.06,NNE,13,0.0,0.0,41,0.00,,---,0.00,VWS V14.01,2013-02-21 02:00:00,
2013-02-20 21:05:00,50.9,28.1,30.09,NNE,13,0.0,0.0,41,0.00,,---,0.00,VWS V14.01,2013-02-21 02:05:00,
2013-02-20 21:10:00,50.5,27.7,30.09,NNE,13,0.0,0.0,41,0.00,,---,0.00,VWS V14.01,2013-02-21 02:10:00,
2013-02-20 21:15:00,50.2,27.4,30.09,NNE,13,0.0,0.0,41,0.00,,---,0.00,VWS V14.01,2013-02-21 02:15:00,
2013-02-20 21:20:00,49.8,27.1,30.06,NNE,13,0.0,0.0,41,0.00,,---,0.00,VWS V14.01,2013-02-21 02:20:00,
2013-02-20 21:25:00,49.6,26.9,30.06,NNE,13,0.0,0.0,41,0.00,,---,0.00,VWS V14.01,2013-02-21 02:25:00,
2013-02-20 21:30:00,49.3,26.6,30.06,NNE,13,0.0,0.0,41,0.00,,---,0.00,VWS V14.01,2013-02-21 02:30:00,
2013-02-20 21:35:00,49.1,26.4,30.06,NNE,13,0.0,0.0,41,0.00,,---,0.00,VWS V14.01,2013-02-21 02:35:00,
2013-02-20 21:40:00,48.9,26.3,30.06,NNE,13,0.0,0.0,41,0.00,,---,0.00,VWS V14.01,2013-02-21 02:40:00,
2013-02-20 21:46:00,48.7,26.1,30.06,NNE,13,0.0,0.0,41,0.00,,---,0.00,VWS V14.01,2013-02-21 02:46:00,
2013-02-20 21:51:00,48.6,26.0,30.09,NNE,13,0.0,0.0,41,0.00,,---,0.00,VWS V14.01,2013-02-21 02:51:00,
2013-02-20 21:56:00,48.4,25.8,30.09,NNE,13,0.0,0.0,41,0.00,,---,0.00,VWS V14.01,2013-02-21 02:56:00,
2013-02-20 22:01:00,48.4,25.8,30.09,NNE,13,0.0,0.0,41,0.00,,---,0.00,VWS V14.01,2013-02-21 03:01:00,
2013-02-20 22:05:00,48.2,25.6,30.09,NNE,13,0.0,0.0,41,0.00,,---,0.00,VWS V14.01,2013-02-21 03:05:00,
2013-02-20 22:10:00,48.2,27.3,30.09,NNE,13,0.0,0.0,44,0.00,,---,0.00,VWS V14.01,2013-02-21 03:10:00,
2013-02-20 22:16:00,48.0,27.2,30.09,NNE,13,0.0,0.0,44,0.00,,---,0.00,VWS V14.01,2013-02-21 03:16:00,
2013-02-20 22:21:00,47.8,27.0,30.09,NNE,13,0.0,0.0,44,0.00,,---,0.00,VWS V14.01,2013-02-21 03:21:00,
2013-02-20 22:26:00,47.8,27.0,30.09,NNE,13,0.0,0.0,44,0.00,,---,0.00,VWS V14.01,2013-02-21 03:26:00,
2013-02-20 22:31:00,47.7,26.8,30.09,NNE,13,0.0,0.0,44,0.00,,---,0.00,VWS V14.01,2013-02-21 03:31:00,
2013-02-20 22:36:00,47.5,26.7,30.09,NNE,13,0.0,0.0,44,0.00,,---,0.00,VWS V14.01,2013-02-21 03:36:00,
2013-02-20 22:41:00,47.3,26.5,30.09,NNE,13,0.0,0.0,44,0.00,,---,0.00,VWS V14.01,2013-02-21 03:41:00,
2013-02-20 22:46:00,47.1,26.3,30.09,NNE,13,0.0,0.0,44,0.00,,---,0.00,VWS V14.01,2013-02-21 03:46:00,
2013-02-20 22:50:00,46.9,26.2,30.06,NNE,13,0.0,0.0,44,0.00,,---,0.00,VWS V14.01,2013-02-21 03:50:00,
2013-02-20 22:56:00,46.8,26.0,30.06,NNE,13,0.0,0.0,44,0.00,,---,0.00,VWS V14.01,2013-02-21 03:56:00,
2013-02-20 23:01:00,46.6,25.9,30.06,NNE,13,0.0,0.0,44,0.00,,---,0.00,VWS V14.01,2013-02-21 04:01:00,
2013-02-20 23:06:00,46.4,25.7,30.06,NNE,13,0.0,0.0,44,0.00,,---,0.00,VWS V14.01,2013-02-21 04:06:00,
2013-02-20 23:11:00,46.2,26.1,30.06,NNE,13,0.0,0.0,45,0.00,,---,0.00,VWS V14.01,2013-02-21 04:11:00,
2013-02-20 23:16:00,45.9,25.7,30.06,NNE,13,0.0,0.0,45,0.00,,---,0.00,VWS V14.01,2013-02-21 04:16:00,
2013-02-20 23:21:00,45.5,25.4,30.06,NNE,13,0.0,0.0,45,0.00,,---,0.00,VWS V14.01,2013-02-21 04:21:00,
2013-02-20 23:26:00,45.3,25.2,30.06,NNE,13,0.0,0.0,45,0.00,,---,0.00,VWS V14.01,2013-02-21 04:26:00,
2013-02-20 23:31:00,45.1,25.1,30.06,NNE,13,0.0,0.0,45,0.00,,---,0.00,VWS V14.01,2013-02-21 04:31:00,
2013-02-20 23:36:00,44.8,24.8,30.03,NNE,13,0.0,0.0,45,0.00,,---,0.00,VWS V14.01,2013-02-21 04:36:00,
2013-02-20 23:41:00,44.6,24.6,30.03,NNE,13,0.0,0.0,45,0.00,,---,0.00,VWS V14.01,2013-02-21 04:41:00,
2013-02-20 23:45:00,44.4,24.4,30.03,NNE,13,0.0,0.0,45,0.00,,---,0.00,VWS V14.01,2013-02-21 04:45:00,
2013-02-20 23:50:00,44.2,24.3,30.06,NNE,13,0.0,0.0,45,0.00,,---,0.00,VWS V14.01,2013-02-21 04:50:00,
2013-02-20 23:55:00,44.1,24.1,30.06,NNE,13,0.0,0.0,45,0.00,,---,0.00,VWS V14.01,2013-02-21 04:55:00,